Torna al catalogo

OPS 4682 DEB

AttivoPO
NORAD 38407·DEBRIS·🇺🇸 United States

Lanciato Apr 3, 1965 da Vandenberg Space Force Base

Loading…

Prossimi Passaggi (prossime 24 ore)

TLE

In scadenzaSource: Space-Track

Epoca: Sep 7, 2026, 14:18 UTC

1 38407U 65027DL  26250.59589923 -.00000152  00000-0 -55153-3 0  9999
2 38407  90.2480   9.2604 0027525 274.1532  85.6442 12.96977766311951

Traccia OPS 4682 DEB in tempo reale con AllMySat

Download on the App Store